Location: Kershaw
(34.5481°N, 80.5823°W)
Time: 14:52:59
(UTC+00:00)

Transit 4A - Pass Details

Date: 12 October 2022
Orbit: 871 x 972 km, 66.8° (Epoch: 29 November)

Event Time Altitude Azimuth Distance (km) Brightness Sun altitude
Rises 01:13:52 0° 214° (SW) 3,610 11.2 -29.7°
Reaches altitude 10° 01:16:28 10° 217° (SW) 2,655 10.5 -30.3°
Maximum altitude 01:22:35 63° 298° (WNW) 1,030 8.2 -31.5°
Enters shadow 01:23:46 52° 346° (NNW) 1,131 8.4 -31.7°
Drops below altitude 10° 01:28:34 10° 20° (NNE) 2,598 - -32.7°
Sets 01:31:05 0° 23° (NNE) 3,528 - -33.2°
